Mumbai, India

11:57 PM IST on November 21, 2017 (GMT +0530)
Chhatrapati Shivaji International

Weather History for VABB - March, 2012

Change the Weather History Date:

Sunday, March 11, 2012

  Actual Average Record
Temperature  
Mean Temperature 73 °F -  
Max Temperature 86 °F 89 °F 98 °F (2002)
Min Temperature 60 °F 72 °F 67 °F (2013)
Cooling Degree Days 8    
Growing Degree Days 23 (Base 50)    
Moisture  
Dew Point 60 °F    
Average Humidity 57    
Maximum Humidity 85    
Minimum Humidity 33    
Precipitation  
Precipitation 0.00 in - - ()
Sea Level Pressure  
Sea Level Pressure 29.78 in    
Wind  
Wind Speed 4 mph ()    
Max Wind Speed 14 mph    
Max Gust Speed -    
Visibility 1.9 miles    
Events      
Averages and records for this station are not official NWS values.
T = Trace of Precipitation, MM = Missing Value Source: Averaged Metar Reports

Daily Weather History Graph

Daily Weather History Graph

Search for Another Location

Airport or City:

Trip Planner

Search our weather history database for the weather conditions in past years. The results will help you decide how hot, cold, wet, or windy it might be!

Date:

Astronomy

Mar. 11, 2012 Rise Set
Actual Time 6:50 AM IST 6:47 PM IST
Civil Twilight 6:28 AM IST 7:09 PM IST
Nautical Twilight 6:02 AM IST 7:34 PM IST
Astronomical Twilight 5:37 AM IST 7:59 PM IST
Moon 9:57 PM IST (3/11) 8:42 AM IST (3/11)
Length of Visible Light 12h 40m
Length of Day
11h 57m
Waning Gibbous, 89% of the Moon is Illuminated
Mar 11
Waning Gibbous
Mar 15
Last Quarter
Mar 22
New
Mar 31
First Quarter
Apr 7
Full

Hourly Weather History & Observations

Time (IST) Temp. Heat Index Dew Point Humidity Pressure Visibility Wind Dir Wind Speed Gust Speed Precip Events Conditions
12:10 AM 75.2 °F - 53.6 °F 47% 29.77 in 1.1 mi Calm Calm - N/A   Smoke
12:40 AM 75.2 °F - 55.4 °F 50% 29.74 in 1.2 mi Variable 2.3 mph - N/A   Smoke
1:40 AM 75.2 °F - 57.2 °F 53% 29.74 in 0.7 mi Calm Calm - N/A   Smoke
2:30 AM 63 °F - 58 °F 77% 29.75 in 1 mi Calm Calm - -   Haze
2:40 AM 73.4 °F - 60.8 °F 65% 29.71 in 1.3 mi Calm Calm - N/A   Smoke
3:10 AM 73.4 °F - 60.8 °F 65% 29.71 in 1.2 mi Calm Calm - N/A   Smoke
3:40 AM 73.4 °F - 59.0 °F 61% 29.71 in 1.1 mi Calm Calm - N/A   Smoke
4:10 AM 71.6 °F - 57.2 °F 60% 29.71 in 1.3 mi Calm Calm - N/A   Smoke
4:40 AM 71.6 °F - 59.0 °F 64% 29.71 in 1.1 mi Calm Calm - N/A   Smoke
5:30 AM 61 °F - 58 °F 85% 29.75 in 1 mi Calm Calm - -   Haze
5:40 AM 71.6 °F - 59.0 °F 64% 29.74 in 1.1 mi Calm Calm - N/A   Smoke
6:10 AM 71.6 °F - 59.0 °F 64% 29.74 in 1.3 mi West 3.5 mph - N/A   Smoke
6:40 AM 71.6 °F - 60.8 °F 69% 29.77 in 1.2 mi Calm Calm - N/A   Smoke
7:40 AM 71.6 °F - 60.8 °F 69% 29.77 in 0.7 mi Calm Calm - N/A   Smoke
8:10 AM 73.4 °F - 62.6 °F 69% 29.80 in 0.9 mi Calm Calm - N/A   Smoke
8:30 AM 68 °F - 62 °F 76% 29.80 in 1 mi Calm Calm - -   Haze
9:10 AM 77.0 °F - 62.6 °F 61% 29.80 in 1.6 mi NNE 3.5 mph - N/A   Smoke
10:10 AM 80.6 °F 81.5 °F 60.8 °F 51% 29.80 in 1.9 mi West 4.6 mph - N/A   Smoke
10:40 AM 80.6 °F 81.8 °F 62.6 °F 54% 29.80 in 1.9 mi West 8.1 mph - N/A   Smoke
11:10 AM 82.4 °F 82.9 °F 60.8 °F 48% 29.83 in 2.2 mi West 9.2 mph - N/A   Smoke
11:30 AM 84 °F - 59 °F 33% 29.82 in 1 mi NW 4.6 mph - -   Smoke
11:40 AM 84.2 °F 84.4 °F 60.8 °F 45% 29.80 in - WSW 9.2 mph - N/A   Smoke
12:10 PM 84.2 °F 83.5 °F 57.2 °F 40% 29.80 in 2.2 mi West 9.2 mph - N/A   Smoke
12:40 PM 82.4 °F 82.5 °F 59.0 °F 45% 29.80 in 2.5 mi West 11.5 mph - N/A   Smoke
1:10 PM 84.2 °F 84.4 °F 60.8 °F 45% 29.77 in 2.5 mi West 11.5 mph - N/A   Smoke
1:40 PM 82.4 °F 83.4 °F 62.6 °F 51% 29.77 in 2.8 mi West 13.8 mph - N/A   Smoke
2:10 PM 82.4 °F 82.5 °F 59.0 °F 45% 29.77 in 2.8 mi West 13.8 mph - N/A   Smoke
2:30 PM 84 °F - 61 °F 36% 29.77 in 1 mi NW 6.9 mph - -   Smoke
2:40 PM 82.4 °F 82.9 °F 60.8 °F 48% 29.74 in 2.8 mi West 12.7 mph - N/A   Smoke
3:40 PM 82.4 °F 83.4 °F 62.6 °F 51% 29.74 in 3.1 mi West 11.5 mph - N/A   Smoke
4:10 PM 82.4 °F 83.4 °F 62.6 °F 51% 29.74 in 3.1 mi WNW 11.5 mph - N/A   Smoke
4:40 PM 80.6 °F 81.5 °F 60.8 °F 51% 29.74 in 3.1 mi WNW 11.5 mph - N/A   Smoke
5:10 PM 80.6 °F 81.5 °F 60.8 °F 51% 29.74 in 3.1 mi WNW 10.4 mph - N/A   Smoke
5:30 PM 80 °F - 60 °F 41% 29.76 in 1 mi NW 9.2 mph - -   Smoke
5:40 PM 78.8 °F - 59.0 °F 51% 29.74 in 3.1 mi West 11.5 mph - N/A   Smoke
6:10 PM 78.8 °F - 57.2 °F 47% 29.77 in 3.1 mi West 10.4 mph - N/A   Smoke
6:40 PM 78.8 °F - 55.4 °F 44% 29.77 in 2.8 mi WNW 5.8 mph - N/A   Smoke
7:10 PM 77.0 °F - 59.0 °F 54% 29.77 in 2.5 mi West 5.8 mph - N/A   Smoke
7:40 PM 77.0 °F - 59.0 °F 54% 29.77 in 2.5 mi West 6.9 mph - N/A   Smoke
8:10 PM 77.0 °F - 60.8 °F 57% 29.80 in 2.5 mi West 4.6 mph - N/A   Smoke
8:30 PM 75 °F - 63 °F 57% 29.81 in 1 mi West 4.6 mph - -   Smoke
8:40 PM 75.2 °F - 60.8 °F 61% 29.80 in 2.5 mi WSW 6.9 mph - N/A   Smoke
9:10 PM 75.2 °F - 62.6 °F 65% 29.83 in 2.5 mi SW 3.5 mph - N/A   Smoke
9:40 PM 75.2 °F - 62.6 °F 65% 29.83 in 2.5 mi SW 3.5 mph - N/A   Smoke
10:10 PM 75.2 °F - 62.6 °F 65% 29.86 in 2.8 mi SW 5.8 mph - N/A   Smoke
10:40 PM 75.2 °F - 62.6 °F 65% 29.86 in 2.8 mi WSW 4.6 mph - N/A   Smoke
11:10 PM 75.2 °F - 62.6 °F 65% 29.86 in 2.8 mi NW 3.5 mph - N/A   Smoke
11:30 PM 67 °F - 61 °F 74% 29.86 in 1 mi Calm Calm - -   Haze
11:40 PM 73.4 °F - 62.6 °F 69% 29.86 in 2.8 mi Calm Calm - N/A   Smoke